User: anonymous   Login
Location: Unspecified
(0.0000°N, 0.0000°E)
Time: 07:24:31
(UTC+00:00)
Language:

FEDSAT - Orbit

View from above orbital plane
View from above orbital plane
View from above satellite
View from above satellite

Ground track
Ground track

The orbit is defined by the following mean orbital elements,

1 27598U          26106.86522353 +.00000000 +00000-0 +38698-4 0 00001
2 27598  98.8556  79.2546 0009408 150.3849 209.7867 14.29713874    03
Epoch (UTC): 16 April 2026 20:45:55
Eccentricity: 0.0009408
inclination: 98.8556°
perigee height: 786 km
apogee height: 799 km
right ascension of ascending node: 79.2546°
argument of perigee: 150.3849°
revolutions per day: 14.29713874
mean anomaly at epoch: 209.7867°

The dashed part of the orbit path shows where the satellite is in the earth's shadow,  

DLR